TimeCEST,TemperatureF,Dew PointF,Humidity,Sea Level PressureIn,VisibilityMPH,Wind Direction,Wind SpeedMPH,Gust SpeedMPH,PrecipitationIn,Events,Conditions,WindDirDegrees,DateUTC
12:00 AM,55.4,51.8,88,30.15,-9999.0,Calm,Calm,-,N/A,,Clear,0,2013-05-04 22:00:00
12:30 AM,53.6,50.0,88,30.15,-9999.0,Calm,Calm,-,N/A,,Clear,0,2013-05-04 22:30:00
1:00 AM,53.6,50.0,88,30.15,-9999.0,Calm,Calm,-,N/A,,Clear,0,2013-05-04 23:00:00
1:30 AM,51.8,50.0,94,30.15,-9999.0,Calm,Calm,-,N/A,,Clear,0,2013-05-04 23:30:00
2:00 AM,50,47,85,30.16,12,ENE,2.3,,,,,70,2013-05-05 00:00:00
2:00 AM,50.0,48.2,94,30.15,-9999.0,NE,3.5,-,N/A,,Clear,50,2013-05-05 00:00:00
2:30 AM,50.0,48.2,94,30.12,-9999.0,SSE,1.2,-,N/A,,Clear,150,2013-05-05 00:30:00
3:00 AM,48.2,46.4,93,30.12,-9999.0,Calm,Calm,-,N/A,,Clear,0,2013-05-05 01:00:00
3:30 AM,48.2,46.4,93,30.12,-9999.0,Calm,Calm,-,N/A,,Clear,0,2013-05-05 01:30:00
4:00 AM,50.0,48.2,94,30.12,-9999.0,Calm,Calm,-,N/A,,Clear,0,2013-05-05 02:00:00
5:00 AM,46.4,46.4,100,30.09,-9999.0,Calm,Calm,-,N/A,,Clear,0,2013-05-05 03:00:00
5:30 AM,46.4,44.6,93,30.09,-9999.0,Calm,Calm,-,N/A,,Clear,0,2013-05-05 03:30:00
6:00 AM,46.4,44.6,93,30.09,-9999.0,Calm,Calm,-,N/A,,Clear,0,2013-05-05 04:00:00
6:30 AM,46.4,44.6,93,30.09,-9999.0,Calm,Calm,-,N/A,,Clear,0,2013-05-05 04:30:00
7:00 AM,46.4,44.6,93,30.09,-9999.0,Calm,Calm,-,N/A,,Clear,0,2013-05-05 05:00:00
7:30 AM,46.4,46.4,100,30.09,-9999.0,Calm,Calm,-,N/A,,Clear,0,2013-05-05 05:30:00
8:00 AM,50,46,82,30.12,16,ENE,2.3,,,,Scattered Clouds,60,2013-05-05 06:00:00
8:00 AM,50.0,48.2,94,30.12,-9999.0,Calm,Calm,-,N/A,,Clear,0,2013-05-05 06:00:00
8:30 AM,53.6,51.8,94,30.12,-9999.0,Calm,Calm,-,N/A,,Clear,0,2013-05-05 06:30:00
9:00 AM,59.0,53.6,82,30.12,-9999.0,Calm,Calm,-,N/A,,Clear,0,2013-05-05 07:00:00
9:30 AM,62.6,50.0,63,30.12,6.2,Variable,1.2,-,N/A,,Partly Cloudy,0,2013-05-05 07:30:00
10:00 AM,62.6,50.0,63,30.12,6.2,SSW,4.6,-,N/A,,Partly Cloudy,210,2013-05-05 08:00:00
10:30 AM,66.2,53.6,64,30.12,-9999.0,SSW,5.8,-,N/A,,Clear,210,2013-05-05 08:30:00
11:00 AM,66.2,53.6,64,30.12,-9999.0,SW,8.1,-,N/A,,Clear,220,2013-05-05 09:00:00
11:30 AM,66.2,53.6,64,30.12,-9999.0,SW,9.2,-,N/A,,Clear,230,2013-05-05 09:30:00
12:00 PM,66.2,53.6,64,30.12,6.2,SSW,10.4,-,N/A,,Partly Cloudy,210,2013-05-05 10:00:00
12:30 PM,68.0,53.6,60,30.12,6.2,SSW,11.5,-,N/A,,Partly Cloudy,210,2013-05-05 10:30:00
1:00 PM,68.0,53.6,60,30.12,6.2,SW,12.7,-,N/A,,Partly Cloudy,220,2013-05-05 11:00:00
1:16 PM,68.0,55.4,64,30.12,6.2,SW,12.7,-,N/A,,Partly Cloudy,220,2013-05-05 11:16:00
1:30 PM,68.0,51.8,56,30.12,6.2,SW,12.7,-,N/A,,Partly Cloudy,220,2013-05-05 11:30:00
2:00 PM,69,54,49,30.14,19,SW,15.0,,,,Scattered Clouds,220,2013-05-05 12:00:00
2:00 PM,68.0,53.6,60,30.12,6.2,SW,13.8,-,N/A,,Partly Cloudy,220,2013-05-05 12:00:00
2:30 PM,68.0,57.2,68,30.12,6.2,SW,15.0,-,N/A,,Partly Cloudy,220,2013-05-05 12:30:00
3:00 PM,68.0,57.2,68,30.12,6.2,SW,16.1,-,N/A,,Partly Cloudy,230,2013-05-05 13:00:00
3:30 PM,68.0,57.2,68,30.12,6.2,SW,15.0,-,N/A,,Partly Cloudy,230,2013-05-05 13:30:00
4:00 PM,68.0,57.2,68,30.12,6.2,SW,16.1,-,N/A,,Partly Cloudy,230,2013-05-05 14:00:00
4:30 PM,68.0,57.2,68,30.09,6.2,SW,16.1,-,N/A,,Partly Cloudy,230,2013-05-05 14:30:00
5:00 PM,68.0,55.4,64,30.09,6.2,SW,15.0,-,N/A,,Partly Cloudy,230,2013-05-05 15:00:00
5:30 PM,66.2,57.2,73,30.09,6.2,SW,13.8,-,N/A,,Partly Cloudy,220,2013-05-05 15:30:00
6:00 PM,68.0,55.4,64,30.09,6.2,SW,15.0,-,N/A,,Partly Cloudy,220,2013-05-05 16:00:00
6:30 PM,66.2,57.2,73,30.09,6.2,SW,15.0,-,N/A,,Partly Cloudy,220,2013-05-05 16:30:00
7:00 PM,66.2,57.2,73,30.09,6.2,SW,13.8,-,N/A,,Partly Cloudy,220,2013-05-05 17:00:00
7:30 PM,64.4,57.2,77,30.09,6.2,SW,11.5,-,N/A,,Partly Cloudy,220,2013-05-05 17:30:00
8:00 PM,65,56,64,30.12,19,SW,15.0,,,,Scattered Clouds,220,2013-05-05 18:00:00
8:00 PM,64.4,57.2,77,30.09,6.2,SW,11.5,-,N/A,,Partly Cloudy,220,2013-05-05 18:00:00
8:30 PM,62.6,57.2,82,30.12,6.2,SW,8.1,-,N/A,,Partly Cloudy,220,2013-05-05 18:30:00
9:00 PM,62.6,57.2,82,30.12,6.2,SSW,6.9,-,N/A,,Partly Cloudy,210,2013-05-05 19:00:00
9:30 PM,62.6,57.2,82,30.12,6.2,SW,5.8,-,N/A,,Partly Cloudy,220,2013-05-05 19:30:00
10:00 PM,60.8,57.2,88,30.12,6.2,WSW,6.9,-,N/A,,Partly Cloudy,240,2013-05-05 20:00:00
10:30 PM,60.8,57.2,88,30.15,6.2,WSW,5.8,-,N/A,,Partly Cloudy,240,2013-05-05 20:30:00
11:00 PM,59.0,57.2,94,30.15,6.2,WSW,4.6,-,N/A,,Partly Cloudy,240,2013-05-05 21:00:00
11:30 PM,59.0,57.2,94,30.15,6.2,WSW,2.3,-,N/A,,Partly Cloudy,240,2013-05-05 21:30:00